Weather at Sappi / Ngodwana

Public forecast

Using degrees Celsius for public forecast. Weather courtesy of forecast.io.

Closest aviation weather report (METAR) to Sappi / Ngodwana

Closest report is Kruger Mpumalanga International Airport, 29.0 nm (53.6 km) ENE. Retrieved 2021/01/17 02:00 UTC (42 minutes ago):

FAKN 170200Z AUTO 10001KT //// // ////// 21/20 Q1012

Closest aviation forecast (TAF) to Sappi / Ngodwana

Forecast is more than 12 hours old.

Closest forecast is Kruger Mpumalanga International Airport, 29.0 nm (53.6 km) ENE. Retrieved 2017/06/05 04:55 UTC (4 years ago):

TAF FAKN 050300Z 0504/0515 25006KT CAVOK BECMG 0511/0513 13005KT SCT030 BECMG 0513/0515 07005KT TX22/0513ZTN08/0504Z